Temp
-8 -8 -8 -8 -8 -9 -9 -9 -8 -8 -8 -7 -7 -7 -7 -7 -6 -6 -6 -6 -7 -6 -6 -6 -6 -6 -6 -6 -6 -6 -7 -7 -7 -6 -6 -7 -6 -6 -6 -6 -6 -6 -6 -6 -6 -6 -6 -6 -6
-8 -8 -8 -8 -8 -9 -9 -9 -8 -8 -7 -7 -7 -7 -7 -7 -6 -6 -6 -7 -7 -7 -6 -7 -6 -6 -6 -6 -6 -6 -7 -7 -7 -7 -7 -7 -7 -7 -6 -6 -6 -6 -6 -6 -6 -6 -6 -6 -6
-8 -8 -8 -8 -8 -9 -9 -9 -8 -8 -8 -7 -7 -6 -6 -6 -7 -7 -7 -7 -7 -7 -6 -7 -7 -7 -7 -7 -6 -6 -7 -7 -7 -7 -7 -7 -7 -7 -7 -6 -6 -6 -6 -6 -6 -6 -6 -6 -6
-7 -8 -8 -8 -9 -9 -9 -9 -8 -9 -8 -8 -7 -6 -6 -6 -7 -7 -7 -7 -8 -7 -7 -7 -7 -6 -6 -6 -7 -7 -7 -8 -7 -8 -8 -8 -7 -7 -7 -7 -6 -6 -6 -6 -6 -6 -6 -6 -6
-8 -8 -8 -8 -10 -9 -8 -8 -8 -8 -8 -8 -7 -6 -6 -6 -7 -7 -8 -7 -7 -7 -8 -8 -8 -8 -8 -7 -7 -8 -8 -8 -7 -7 -7 -7 -7 -7 -7 -6 -6 -6 -6 -6 -6 -6 -7 -6 -6
-8 -8 -8 -8 -9 -9 -8 -9 -9 -8 -8 -8 -7 -6 -6 -6 -7 -7 -7 -8 -7 -7 -7 -7 -8 -7 -6 -7 -7 -7 -8 -8 -8 -7 -7 -7 -7 -7 -7 -7 -6 -6 -6 -6 -6 -6 -7 -6 -6
-7 -8 -8 -8 -8 -8 -8 -9 -9 -8 -8 -8 -7 -7 -6 -6 -6 -6 -6 -7 -8 -7 -7 -7 -7 -6 -6 -7 -7 -7 -7 -7 -7 -7 -7 -8 -8 -7 -7 -7 -7 -7 -6 -6 -6 -6 -7 -7 -6
-7 -8 -8 -8 -8 -8 -8 -8 -8 -8 -8 -8 -7 -7 -7 -7 -7 -6 -7 -7 -8 -8 -7 -7 -7 -6 -6 -7 -7 -7 -7 -7 -8 -8 -7 -7 -7 -7 -7 -7 -7 -7 -7 -7 -7 -7 -7 -7 -7
-7 -7 -8 -8 -9 -8 -8 -8 -8 -8 -8 -7 -7 -7 -7 -7 -7 -7 -7 -7 -8 -8 -8 -8 -8 -7 -7 -7 -7 -7 -8 -8 -7 -7 -8 -8 -8 -7 -7 -7 -7 -7 -7 -7 -7 -7 -7 -7 -7
-7 -8 -8 -8 -8 -8 -8 -8 -8 -8 -7 -7 -7 -8 -8 -7 -7 -8 -8 -8 -8 -8 -8 -8 -7 -7 -7 -7 -7 -8 -7 -7 -7 -7 -8 -8 -8 -8 -8 -8 -8 -8 -7 -7 -6 -7 -7 -7 -7
-7 -8 -8 -8 -8 -8 -8 -8 -8 -8 -7 -7 -7 -8 -8 -7 -7 -8 -8 -8 -8 -8 -8 -8 -8 -8 -8 -8 -8 -8 -8 -8 -7 -7 -8 -8 -8 -8 -8 -8 -8 -8 -8 -8 -8 -8 -7 -7 -7
-7 -8 -8 -8 -7 -7 -8 -8 -7 -7 -7 -7 -7 -8 -8 -8 -8 -8 -8 -8 -7 -7 -7 -7 -8 -9 -8 -8 -8 -8 -8 -8 -8 -8 -8 -8 -8 -8 -8 -8 -8 -8 -8 -8 -8 -7 -8 -8 -8
-7 -7 -7 -8 -8 -8 -8 -8 -8 -8 -7 -8 -8 -8 -8 -8 -8 -8 -7 -8 -7 -8 -7 -7 -7 -8 -8 -8 -8 -8 -8 -8 -8 -8 -8 -8 -8 -8 -8 -8 -8 -8 -8 -8 -8 -8 -8 -8 -8
-7 -8 -8 -8 -8 -8 -8 -8 -8 -8 -8 -8 -8 -8 -8 -7 -7 -8 -8 -8 -8 -7 -8 -7 -7 -7 -8 -8 -8 -8 -7 -8 -8 -7 -8 -7 -7 -7 -8 -8 -7 -7 -8 -8 -8 -8 -8 -8 -7
-7 -7 -8 -8 -9 -8 -8 -8 -9 -9 -9 -8 -7 -7 -7 -7 -7 -8 -8 -8 -8 -8 -7 -8 -8 -8 -8 -8 -8 -8 -7 -7 -7 -7 -8 -8 -7 -7 -7 -8 -8 -8 -8 -8 -8 -8 -8 -8 -7
-8 -8 -8 -9 -9 -9 -8 -8 -8 -10 -10 -9 -7 -7 -7 -7 -7 -7 -8 -8 -8 -7 -7 -7 -7 -7 -7 -8 -7 -7 -7 -7 -7 -7 -8 -8 -8 -8 -8 -8 -7 -8 -8 -8 -8 -8 -8 -8 -9
-8 -8 -8 -9 -9 -8 -8 -8 -9 -10 -9 -9 -9 -8 -8 -8 -7 -7 -8 -8 -8 -8 -8 -7 -7 -7 -7 -7 -7 -8 -7 -7 -7 -7 -8 -8 -8 -8 -8 -8 -8 -8 -8 -8 -8 -8 -8 -9 -9
-8 -8 -8 -9 -9 -8 -8 -8 -10 -10 -10 -10 -10 -9 -9 -9 -8 -8 -8 -8 -8 -8 -8 -8 -7 -7 -7 -7 -8 -7 -8 -8 -7 -8 -8 -8 -8 -8 -8 -8 -8 -8 -8 -8 -8 -8 -8 -9 -9
-9 -9 -9 -9 -10 -9 -9 -9 -10 -11 -11 -11 -10 -10 -10 -10 -9 -9 -9 -8 -8 -8 -8 -8 -8 -8 -8 -8 -8 -8 -8 -8 -8 -8 -8 -8 -8 -8 -8 -8 -8 -8 -8 -8 -8 -8 -9 -9 -9
-10 -10 -10 -10 -10 -10 -10 -10 -10 -11 -12 -12 -11 -11 -11 -11 -11 -10 -9 -9 -8 -9 -9 -9 -9 -8 -9 -9 -8 -9 -8 -8 -8 -8 -8 -8 -8 -8 -8 -8 -8 -8 -8 -8 -8 -9 -9 -9 -9
-10 -10 -10 -10 -10 -10 -10 -10 -11 -12 -12 -11 -11 -11 -11 -11 -11 -12 -12 -11 -10 -9 -9 -9 -9 -9 -9 -9 -9 -9 -9 -8 -8 -9 -9 -9 -9 -9 -9 -9 -9 -9 -9 -9 -9 -9 -9 -9 -9
-10 -11 -11 -11 -11 -11 -10 -10 -11 -12 -12 -12 -11 -11 -11 -11 -11 -11 -11 -11 -11 -10 -10 -10 -10 -10 -10 -10 -10 -10 -10 -9 -9 -9 -9 -9 -9 -9 -9 -9 -9 -9 -9 -9 -9 -9 -9 -10 -10
-11 -11 -11 -11 -11 -11 -12 -11 -11 -11 -11 -12 -12 -12 -12 -11 -11 -11 -11 -11 -11 -10 -10 -10 -11 -10 -10 -10 -10 -10 -10 -10 -10 -10 -9 -10 -10 -9 -9 -10 -10 -10 -9 -10 -10 -9 -9 -10 -10
-12 -12 -12 -12 -12 -12 -12 -12 -12 -12 -12 -12 -12 -12 -12 -12 -12 -12 -12 -11 -12 -12 -11 -12 -12 -12 -11 -12 -12 -11 -12 -11 -11 -11 -10 -10 -10 -10 -10 -10 -10 -10 -10 -10 -10 -10 -10 -10 -10
-13 -13 -13 -13 -13 -12 -12 -12 -12 -12 -12 -12 -13 -12 -12 -12 -12 -12 -12 -12 -12 -12 -12 -12 -13 -13 -12 -13 -13 -13 -13 -12 -11 -11 -11 -11 -11 -11 -11 -11 -11 -11 -11 -11 -11 -10 -11 -10 -10
-14 -14 -14 -13 -13 -13 -13 -13 -12 -13 -12 -12 -13 -13 -13 -13 -13 -13 -13 -13 -13 -13 -13 -13 -13 -13 -13 -12 -13 -13 -13 -12 -12 -11 -11 -11 -11 -12 -11 -12 -11 -11 -11 -11 -11 -11 -11 -11 -11
-14 -14 -14 -14 -14 -14 -14 -14 -14 -14 -14 -13 -13 -13 -13 -13 -13 -13 -13 -13 -13 -13 -14 -13 -13 -13 -13 -13 -13 -13 -13 -12 -13 -12 -12 -12 -12 -12 -12 -12 -12 -12 -11 -11 -11 -11 -11 -11 -11
-15 -15 -15 -15 -15 -15 -15 -15 -14 -14 -14 -14 -14 -14 -14 -14 -14 -13 -13 -13 -13 -13 -14 -14 -14 -14 -14 -14 -14 -14 -13 -13 -13 -13 -13 -13 -13 -13 -12 -13 -13 -13 -12 -12 -12 -12 -12 -12 -12
-15 -15 -16 -16 -15 -16 -16 -15 -15 -15 -14 -14 -14 -14 -14 -14 -14 -14 -14 -13 -13 -14 -14 -14 -14 -14 -14 -14 -14 -14 -13 -13 -13 -13 -13 -13 -14 -13 -13 -13 -13 -13 -13 -13 -13 -13 -13 -13 -13
-16 -15 -15 -16 -16 -16 -15 -15 -15 -15 -14 -14 -14 -14 -14 -14 -14 -14 -14 -14 -14 -14 -14 -14 -14 -15 -14 -14 -14 -15 -14 -14 -14 -13 -13 -13 -13 -13 -13 -14 -14 -14 -14 -13 -13 -13 -13 -13 -13
Height
5889 5892 5894 5896 5900 5896 5896 5900 5901 5903 5904 5905 5906 5907 5907 5908 5908 5907 5904 5902 5907 5911 5912 5918 5919 5918 5919 5921 5920 5922 5922 5924 5925 5925 5926 5926 5927 5928 5928 5927 5927 5927 5927 5925 5924 5923 5922 5921 5920
5889 5891 5894 5895 5898 5894 5896 5898 5901 5902 5904 5904 5906 5907 5909 5908 5906 5904 5901 5899 5905 5911 5914 5916 5919 5919 5920 5921 5922 5923 5923 5923 5924 5925 5925 5926 5927 5926 5926 5927 5927 5927 5927 5926 5924 5923 5923 5921 5920
5888 5891 5893 5895 5895 5891 5895 5896 5899 5901 5902 5903 5907 5909 5909 5909 5906 5905 5904 5904 5908 5913 5916 5917 5920 5920 5920 5920 5921 5922 5922 5923 5924 5925 5925 5925 5926 5926 5926 5926 5927 5927 5927 5927 5925 5924 5923 5921 5919
5888 5890 5892 5893 5892 5888 5888 5895 5897 5898 5901 5903 5906 5910 5911 5910 5908 5908 5909 5910 5913 5916 5917 5919 5920 5919 5918 5919 5921 5921 5921 5923 5923 5923 5923 5924 5924 5925 5925 5925 5925 5925 5926 5925 5924 5923 5921 5921 5919
5886 5888 5890 5891 5891 5886 5889 5895 5897 5897 5899 5902 5907 5908 5910 5910 5909 5909 5910 5913 5915 5915 5916 5918 5919 5919 5919 5919 5920 5921 5920 5919 5921 5921 5921 5921 5921 5922 5922 5923 5923 5923 5924 5923 5922 5921 5920 5918 5918
5883 5886 5888 5889 5887 5885 5888 5892 5894 5895 5898 5901 5906 5907 5908 5909 5910 5909 5910 5911 5913 5915 5916 5915 5918 5918 5918 5918 5917 5918 5919 5918 5918 5920 5920 5920 5921 5921 5921 5920 5920 5920 5920 5921 5921 5920 5919 5917 5916
5879 5882 5885 5886 5884 5885 5887 5890 5892 5894 5896 5898 5902 5905 5906 5907 5908 5908 5908 5908 5911 5912 5913 5914 5915 5916 5916 5917 5917 5917 5918 5918 5917 5918 5918 5917 5917 5917 5917 5917 5917 5917 5916 5916 5918 5918 5916 5914 5914
5876 5879 5882 5883 5882 5882 5884 5887 5890 5892 5893 5896 5899 5902 5903 5904 5904 5904 5906 5906 5907 5909 5911 5913 5914 5914 5915 5914 5913 5915 5915 5914 5914 5914 5914 5914 5914 5913 5913 5913 5912 5912 5912 5912 5912 5913 5913 5911 5908
5874 5876 5879 5880 5879 5880 5881 5882 5885 5888 5892 5894 5896 5898 5899 5899 5899 5900 5902 5903 5905 5908 5909 5909 5911 5913 5912 5912 5910 5911 5911 5911 5910 5909 5909 5909 5909 5909 5910 5909 5909 5908 5907 5908 5907 5908 5908 5907 5905
5872 5874 5875 5876 5876 5876 5875 5877 5879 5884 5888 5890 5892 5893 5893 5895 5896 5897 5898 5900 5902 5903 5903 5904 5907 5908 5908 5908 5908 5907 5907 5907 5908 5907 5905 5905 5905 5905 5905 5905 5905 5904 5903 5902 5902 5901 5901 5902 5901
5869 5870 5871 5871 5872 5874 5872 5872 5874 5879 5882 5885 5888 5889 5889 5889 5891 5893 5894 5896 5896 5897 5899 5900 5902 5903 5903 5903 5903 5902 5903 5902 5904 5903 5902 5902 5902 5901 5901 5902 5901 5899 5898 5898 5897 5897 5896 5897 5897
5867 5866 5867 5867 5869 5871 5869 5868 5870 5874 5878 5880 5883 5886 5886 5885 5886 5888 5890 5891 5892 5893 5894 5895 5897 5898 5899 5900 5899 5899 5898 5898 5900 5899 5898 5898 5898 5899 5897 5896 5896 5894 5893 5893 5892 5892 5892 5891 5892
5864 5864 5865 5864 5866 5868 5867 5865 5865 5870 5873 5875 5878 5879 5882 5882 5882 5884 5885 5886 5887 5888 5890 5891 5891 5892 5894 5894 5894 5894 5894 5895 5895 5894 5894 5893 5894 5894 5893 5892 5891 5890 5889 5889 5888 5887 5885 5885 5885
5860 5860 5861 5861 5861 5863 5864 5862 5861 5863 5867 5870 5870 5873 5875 5877 5877 5880 5881 5881 5882 5883 5885 5886 5886 5887 5889 5890 5889 5890 5891 5891 5891 5890 5890 5890 5890 5890 5889 5888 5887 5887 5885 5885 5884 5882 5879 5879 5880
5854 5855 5855 5856 5856 5857 5858 5860 5859 5857 5858 5863 5865 5866 5869 5871 5873 5874 5876 5877 5879 5880 5880 5881 5882 5883 5884 5884 5884 5885 5886 5887 5886 5886 5886 5887 5886 5886 5885 5884 5883 5882 5881 5881 5880 5877 5876 5876 5876
5848 5849 5849 5848 5847 5848 5850 5853 5852 5852 5852 5855 5858 5860 5861 5864 5867 5867 5870 5872 5872 5874 5875 5877 5878 5878 5878 5879 5880 5881 5882 5882 5882 5881 5882 5883 5882 5882 5880 5879 5878 5878 5877 5876 5875 5875 5874 5873 5871
5840 5841 5842 5840 5841 5842 5845 5847 5847 5845 5845 5846 5851 5854 5855 5856 5859 5861 5862 5865 5866 5867 5869 5870 5870 5871 5872 5873 5875 5875 5876 5877 5877 5877 5877 5877 5877 5877 5876 5876 5875 5873 5873 5872 5873 5872 5871 5869 5867
5830 5834 5835 5835 5834 5836 5838 5840 5840 5839 5841 5841 5841 5845 5847 5848 5851 5852 5854 5857 5858 5860 5861 5863 5864 5865 5866 5868 5869 5869 5870 5871 5872 5872 5872 5872 5872 5872 5873 5872 5870 5870 5869 5869 5869 5868 5866 5864 5863
5825 5825 5827 5829 5829 5831 5833 5834 5837 5834 5835 5835 5835 5837 5839 5840 5841 5843 5845 5848 5851 5852 5855 5856 5858 5858 5860 5861 5862 5863 5864 5865 5867 5867 5867 5866 5867 5867 5867 5866 5867 5866 5865 5865 5865 5863 5862 5861 5859
5817 5819 5822 5822 5822 5824 5825 5827 5828 5830 5827 5828 5829 5831 5832 5834 5835 5835 5838 5840 5842 5844 5846 5848 5850 5850 5851 5852 5853 5856 5857 5859 5860 5860 5859 5860 5860 5860 5861 5862 5862 5861 5861 5860 5860 5859 5857 5856 5855
5810 5812 5815 5816 5814 5815 5818 5820 5821 5820 5821 5824 5824 5825 5826 5828 5829 5829 5829 5831 5835 5837 5838 5840 5842 5843 5842 5843 5845 5846 5849 5851 5852 5852 5850 5851 5852 5854 5855 5856 5856 5855 5855 5855 5854 5854 5852 5852 5851
5804 5805 5807 5807 5808 5810 5811 5814 5815 5814 5815 5815 5815 5816 5818 5820 5821 5821 5821 5821 5825 5830 5831 5832 5834 5835 5835 5835 5835 5836 5837 5839 5840 5842 5842 5843 5844 5846 5847 5848 5849 5849 5849 5849 5849 5848 5848 5847 5847
5795 5796 5798 5799 5801 5802 5804 5806 5806 5806 5808 5808 5808 5808 5809 5810 5812 5813 5814 5814 5816 5819 5822 5824 5824 5825 5826 5827 5828 5827 5829 5831 5832 5834 5835 5836 5836 5838 5839 5839 5840 5841 5841 5842 5842 5841 5841 5841 5841
5785 5788 5790 5791 5792 5793 5795 5797 5797 5799 5800 5800 5800 5800 5800 5801 5802 5804 5805 5806 5807 5808 5811 5813 5814 5816 5816 5818 5819 5819 5820 5821 5825 5826 5828 5829 5828 5830 5830 5830 5831 5833 5834 5834 5835 5835 5835 5836 5836
5779 5780 5781 5783 5784 5786 5786 5787 5788 5789 5790 5790 5791 5791 5792 5793 5794 5795 5796 5797 5798 5798 5800 5802 5805 5807 5807 5809 5811 5811 5813 5813 5814 5815 5817 5819 5819 5820 5821 5821 5822 5824 5825 5827 5828 5828 5829 5830 5831
5772 5773 5774 5772 5775 5777 5776 5774 5777 5778 5778 5780 5781 5782 5783 5784 5785 5786 5787 5787 5790 5790 5791 5794 5796 5796 5796 5798 5799 5802 5802 5804 5805 5806 5807 5809 5810 5810 5811 5812 5814 5815 5817 5818 5819 5820 5821 5822 5823
5764 5765 5766 5765 5764 5764 5766 5766 5766 5767 5767 5767 5769 5772 5773 5774 5775 5775 5777 5778 5780 5782 5783 5784 5784 5785 5786 5788 5789 5790 5791 5794 5794 5795 5796 5798 5800 5801 5801 5803 5805 5806 5808 5809 5811 5811 5812 5814 5815
5754 5755 5756 5756 5753 5751 5752 5754 5754 5756 5756 5757 5757 5760 5763 5763 5764 5764 5765 5766 5768 5769 5771 5773 5774 5774 5775 5777 5778 5779 5781 5782 5783 5784 5785 5787 5789 5791 5792 5794 5797 5799 5800 5801 5802 5804 5804 5805 5807
5744 5744 5745 5745 5743 5740 5739 5741 5744 5745 5745 5745 5746 5748 5748 5750 5751 5752 5751 5752 5754 5755 5757 5759 5761 5762 5763 5764 5765 5766 5768 5769 5769 5773 5775 5776 5778 5779 5782 5783 5786 5788 5789 5791 5794 5796 5796 5797 5799
5732 5733 5734 5733 5732 5731 5729 5730 5732 5732 5731 5732 5732 5733 5735 5737 5737 5737 5737 5737 5738 5740 5742 5743 5746 5748 5748 5749 5750 5752 5753 5754 5759 5761 5762 5761 5763 5764 5767 5770 5772 5775 5778 5780 5783 5784 5786 5787 5789
Wind_Speed
14 14 14 12 15 17 14 7 9 11 10 5 3 4 8 13 16 19 18 8 26 20 18 13 11 11 8 6 7 4 3 2 2 4 5 4 5 6 7 8 10 12 13 13 13 13 13 12 11
14 15 15 15 18 18 14 10 5 12 13 12 6 2 4 11 16 16 18 5 27 21 18 13 11 9 7 5 3 3 2 1 3 2 3 5 5 6 8 9 11 12 14 15 15 15 15 14 12
13 15 16 17 21 21 19 15 11 9 15 13 8 4 3 10 19 12 15 15 27 22 15 10 10 9 7 6 4 3 2 3 4 6 5 7 9 11 12 13 14 14 15 16 17 18 17 15 14
17 14 17 18 22 24 22 18 15 13 12 12 11 9 3 6 14 14 12 10 23 20 15 11 13 13 9 7 6 6 4 6 7 8 8 10 12 13 14 15 15 15 16 17 17 18 18 16 15
21 18 17 19 18 28 24 21 17 19 16 15 14 13 7 2 5 6 4 1 5 18 18 11 10 8 8 7 8 9 9 8 10 11 11 12 15 17 18 19 20 20 19 19 20 19 19 20 18
23 23 20 21 22 26 26 22 21 20 21 20 13 11 11 3 5 8 6 7 8 10 10 12 10 13 14 14 13 13 13 12 13 16 16 17 19 21 22 23 25 25 25 23 23 23 23 23 21
21 25 24 22 24 24 26 24 25 25 25 24 23 17 15 13 13 12 12 15 18 20 18 15 11 16 18 15 15 16 18 18 17 18 20 20 20 21 22 23 23 24 24 24 24 24 24 25 27
17 25 27 24 25 26 26 27 27 28 30 28 25 23 22 21 22 12 5 9 20 22 19 20 19 23 23 21 18 18 18 16 16 16 18 19 20 20 21 22 23 24 26 26 26 23 23 25 27
16 20 29 28 27 28 30 32 31 30 29 28 28 25 25 26 16 9 8 13 18 23 24 27 27 26 26 22 19 18 15 20 22 18 18 19 21 22 23 24 25 25 26 27 27 27 25 24 26
15 16 28 33 32 32 35 37 36 34 32 30 25 25 23 18 13 9 9 17 15 17 18 21 25 20 20 19 18 20 22 19 21 22 22 19 21 23 26 25 25 27 29 28 29 30 30 27 26
15 19 24 31 35 37 40 42 42 38 33 28 22 17 16 14 7 8 11 18 19 20 13 14 16 19 16 17 19 19 23 22 23 24 19 20 20 19 19 26 27 23 25 26 26 29 31 33 30
15 20 23 28 29 30 34 36 35 32 29 26 20 17 19 16 11 10 12 15 18 19 20 20 19 17 15 16 19 22 20 22 22 18 20 21 18 23 22 21 20 22 19 23 26 29 30 32 30
14 16 18 21 23 25 29 34 34 29 26 24 21 17 16 19 17 13 15 15 18 18 20 20 21 22 21 21 21 23 21 20 21 20 18 17 17 16 18 18 19 20 21 21 26 26 24 25 27
20 20 19 19 20 20 23 29 31 30 27 23 25 21 19 20 21 14 16 17 19 19 19 19 21 22 22 21 22 22 21 20 21 18 15 18 17 17 16 17 19 19 19 19 21 23 25 26 23
28 26 25 22 23 24 25 24 25 32 33 27 27 26 22 21 21 18 17 20 23 23 21 21 24 23 21 21 22 24 22 20 18 17 15 17 18 18 19 19 20 20 20 19 19 20 12 18 24
29 28 27 25 29 31 33 30 32 34 36 34 31 31 30 26 24 24 20 22 24 23 22 22 21 22 21 20 22 22 21 19 19 17 17 18 19 19 20 21 22 21 21 22 18 18 24 21 22
30 30 27 29 33 33 32 30 33 37 39 39 35 34 32 32 30 27 26 25 25 24 25 24 22 21 21 20 20 21 21 20 20 20 20 21 20 20 20 23 23 21 21 18 17 22 21 21 21
33 32 32 33 35 34 34 31 31 32 30 33 35 32 32 33 31 31 31 29 29 27 27 27 25 26 25 23 23 23 23 23 24 22 23 23 22 21 22 22 23 23 22 19 24 20 20 19 19
32 31 31 30 33 33 33 32 28 28 26 28 33 31 31 31 33 33 33 31 30 29 28 28 28 28 29 30 28 29 28 27 26 25 25 25 24 24 23 23 24 24 24 23 24 21 22 22 20
35 34 30 29 31 33 32 30 29 26 28 31 34 34 29 28 30 32 35 34 31 31 30 32 32 33 32 33 34 31 31 29 29 28 29 27 27 26 26 25 25 25 24 23 23 23 23 22 21
37 36 33 31 35 35 34 32 32 34 34 33 35 32 29 25 23 26 27 28 31 34 33 33 33 35 37 37 36 35 34 33 32 31 32 30 30 29 28 26 26 26 25 24 23 23 23 21 21
38 37 36 37 37 36 36 36 34 35 34 32 35 34 32 32 32 32 32 32 32 31 32 31 33 35 38 38 37 38 38 36 35 33 34 34 34 31 29 27 27 26 26 24 23 23 21 20 21
41 38 38 38 39 37 36 36 34 36 34 33 34 36 37 37 37 37 36 35 34 32 31 32 34 34 35 34 38 38 39 38 38 37 37 35 35 33 31 29 28 27 26 25 25 25 23 21 22
42 40 39 39 37 38 36 34 33 31 32 34 36 36 38 41 42 42 41 38 37 36 33 36 39 38 35 29 32 34 31 36 35 35 37 34 35 34 33 31 31 29 27 27 27 27 25 23 22
39 39 39 40 39 39 39 39 37 36 34 35 34 37 38 39 39 41 41 40 37 34 32 32 37 37 36 31 34 33 31 32 34 34 31 31 32 33 33 33 33 31 30 28 28 28 28 27 24
37 40 40 42 41 42 44 45 42 40 38 38 35 34 36 35 34 36 38 38 34 36 26 27 32 36 40 42 38 35 35 32 30 31 32 31 34 33 34 34 34 34 32 31 31 31 30 29 26
33 38 40 43 45 46 46 45 44 42 40 40 38 36 36 33 36 37 35 36 39 34 28 33 40 44 42 43 43 42 41 34 31 34 39 40 37 36 35 34 35 36 36 34 33 33 32 31 30
28 30 32 35 39 43 44 44 45 44 44 44 44 43 40 41 42 45 44 42 40 38 36 35 39 41 42 44 43 42 43 40 39 37 38 35 38 37 37 35 34 36 37 36 35 35 35 35 33
35 36 36 37 41 45 48 50 47 47 47 47 47 47 47 48 48 48 48 47 45 45 45 43 42 45 47 48 48 48 48 45 46 42 38 38 36 40 41 40 35 35 37 37 37 38 38 37 36
40 42 43 44 46 46 48 49 48 50 52 52 54 53 51 50 50 51 52 52 52 50 49 48 48 47 50 50 51 51 52 53 50 49 47 45 44 45 45 45 39 37 39 40 39 38 39 39 39
Wind_Direction
196 192 193 185 176 191 204 188 217 218 224 222 292 31 24 20 9 357 344 235 179 185 173 189 190 170 167 163 140 139 113 81 42 4 346 348 351 356 356 350 346 342 342 346 348 348 355 343 330
202 193 192 188 181 214 214 218 207 234 245 251 260 338 26 19 16 11 21 142 175 188 186 181 209 188 180 188 195 198 214 281 289 305 311 317 312 325 331 331 332 334 335 337 342 345 350 354 334
214 197 196 195 188 233 220 225 232 238 246 250 259 306 356 29 17 27 5 102 154 170 187 187 212 207 196 208 227 235 239 258 277 289 300 309 312 318 321 323 323 322 323 326 331 335 339 349 350
221 211 200 200 208 230 229 221 236 241 235 252 267 291 293 39 35 52 39 135 169 181 184 196 220 221 213 221 240 247 254 285 294 298 303 308 305 304 305 307 310 314 315 316 319 321 323 329 336
218 222 207 208 223 234 231 217 232 247 259 267 283 311 268 68 9 8 18 346 214 191 193 204 219 216 207 215 239 252 252 262 279 286 294 296 297 299 303 307 309 309 306 305 306 307 311 313 318
223 221 218 219 231 247 235 226 240 252 262 274 286 303 307 285 314 308 273 237 233 233 222 242 245 253 251 246 246 256 266 270 275 285 290 292 295 297 300 302 303 303 302 300 299 301 304 304 304
231 219 224 223 236 241 255 245 241 250 260 272 284 289 303 301 297 285 267 243 223 234 245 245 241 258 257 252 262 269 276 280 283 282 283 284 285 288 291 291 293 295 296 297 297 297 297 298 300
235 223 221 227 237 243 246 251 252 254 259 269 278 285 290 292 290 275 246 181 209 232 238 254 253 254 270 270 268 273 278 274 268 269 276 280 281 280 280 283 286 288 290 291 292 292 294 294 293
232 229 218 231 240 246 249 251 250 251 257 266 272 281 287 291 273 239 230 196 212 232 244 251 259 267 269 264 269 273 282 280 267 266 272 276 273 277 278 280 283 283 284 288 290 290 288 286 288
232 231 222 228 237 244 252 255 260 262 265 268 277 286 287 276 234 215 187 194 209 238 250 245 241 256 266 274 268 263 256 278 271 265 276 266 274 276 275 277 284 288 285 284 285 284 281 279 280
223 225 228 231 236 240 248 255 260 263 270 274 274 276 282 253 239 220 212 212 226 241 246 229 231 244 262 264 256 249 254 265 267 274 262 276 278 283 293 283 289 288 282 280 283 285 284 278 278
239 228 229 237 243 244 246 256 260 265 271 272 276 282 267 261 241 232 224 228 237 242 245 247 238 242 250 254 256 253 259 265 265 265 272 280 284 272 286 288 296 288 286 289 289 286 281 279 278
246 246 246 250 251 252 256 258 263 267 271 279 279 278 263 266 262 244 245 238 239 245 247 244 249 253 250 253 254 257 258 254 270 277 280 285 286 289 290 299 300 295 292 293 291 290 277 289 276
252 251 250 251 255 257 257 261 272 276 279 273 267 261 258 252 256 247 234 240 247 247 248 247 244 244 240 238 242 250 255 256 263 270 281 283 291 292 296 298 301 303 305 300 294 292 280 287 280
256 254 252 248 253 257 256 257 265 265 266 260 261 263 256 254 258 259 234 236 234 241 240 244 243 239 232 230 235 241 248 252 258 266 271 279 285 291 296 299 301 304 306 303 295 301 291 290 291
264 260 255 245 244 244 249 251 252 253 255 261 267 271 270 262 256 259 244 234 240 239 238 234 231 229 226 225 232 239 244 250 258 262 264 266 274 282 288 293 295 300 302 305 300 286 294 295 288
261 256 247 243 250 255 261 261 259 257 259 257 258 260 263 265 263 257 253 241 239 240 243 244 246 242 239 239 237 242 248 247 252 257 261 268 273 276 281 284 290 298 298 294 286 294 288 285 288
255 256 253 251 253 257 257 257 251 256 256 255 263 265 266 263 262 259 255 248 245 236 239 243 244 246 248 248 248 248 248 249 256 257 259 265 271 276 278 282 289 291 292 285 290 287 291 288 293
258 256 255 256 259 261 261 257 247 253 252 249 257 261 265 266 259 257 256 254 247 245 243 244 245 245 250 249 245 246 250 253 256 258 259 262 266 270 275 280 283 285 286 283 282 284 283 283 288
258 258 255 252 254 259 259 258 256 245 239 250 262 263 266 270 260 263 258 250 246 245 242 243 245 248 250 251 250 247 248 252 254 258 261 263 266 269 271 273 276 279 281 280 280 278 273 275 279
257 258 255 253 251 253 255 255 255 256 260 256 258 261 258 256 249 253 258 251 241 244 246 244 246 249 255 255 254 255 250 248 250 252 257 261 264 265 265 267 271 274 275 276 276 270 271 277 283
260 261 259 255 254 257 258 256 255 259 261 261 262 258 256 257 260 260 264 266 259 248 246 246 248 248 250 253 256 257 259 258 258 258 259 261 264 267 269 269 270 273 276 277 275 265 266 272 276
260 258 260 260 262 260 259 261 259 258 256 261 264 264 263 263 261 264 268 271 270 268 265 262 255 252 250 248 249 250 252 253 256 258 258 260 264 265 269 269 270 271 273 275 271 266 264 269 276
258 257 257 260 261 261 261 256 256 261 261 259 258 259 262 265 269 271 271 271 272 272 265 265 261 259 251 246 247 249 254 256 253 251 254 259 262 265 268 270 270 270 270 269 266 261 260 263 270
257 259 259 260 261 260 262 263 261 260 259 257 256 258 259 260 264 267 268 269 268 265 266 258 251 252 248 244 252 253 255 258 259 261 262 263 259 261 264 264 266 267 267 265 262 259 255 258 265
257 258 258 262 265 266 264 266 266 263 262 259 259 257 258 259 260 259 262 263 259 265 259 242 244 248 253 252 249 255 254 255 258 268 273 267 264 260 261 263 264 264 263 261 260 260 258 261 265
261 261 261 263 266 267 267 267 267 266 263 261 261 257 261 260 253 254 263 261 258 250 254 254 246 250 257 264 262 254 257 262 278 276 272 275 267 260 256 257 261 263 263 260 258 259 259 261 264
261 263 264 264 265 265 264 264 264 264 264 263 263 261 259 262 262 263 268 267 257 253 256 260 256 260 262 267 270 267 264 269 268 279 270 267 264 259 255 253 255 258 260 261 260 261 260 260 262
264 261 256 261 262 264 265 263 265 266 268 269 268 270 271 269 269 270 271 267 264 265 264 263 260 257 257 261 265 265 263 264 267 271 261 271 266 263 258 253 251 252 253 254 255 256 257 258 261
265 255 266 263 264 265 267 267 269 270 273 277 279 279 277 275 274 272 271 270 269 268 267 265 260 262 260 259 261 263 265 266 268 267 265 266 264 260 253 251 249 246 248 252 253 253 255 257 256